Content
SEND FEEDBACK

Daily
Averages
Monthly
Summary
United Kingdom

YORK, ENGLAND


Home > Europe > United Kingdom > England
Elevation: 27 feet     Latitude: 53 50N     Longitude: 001 11W

WEATHER
 
SELECT A DAY
Number of Records: 48,838;   Date Range: 6/27/01 - 12/19/13
 
SHARE

PRINT THIS DATA

[ ← Previous Day ]
WEATHER ALMANAC - MAY 4, 2013
[ Next Day → ]
[ °C ]   °F
Weather ElementAverageHighLow
Temperature53.2 °F57.2 °F (1:50 pm)51.8 °F (12:50 am)
Dewpoint38.5 °F43 °F (6:50 am)28.4 °F (4:50 pm)
Humidity55.9 %71 % (1:50 am)33 % (4:50 pm)
Barometer29.90 in30.04 in (10:50 pm)29.80 in (4:50 am)
Wind Speed15.6 mph21.9 mph (4:50 pm)
Weather ElementAverage
Visibility11 mi
Wind DirectionWSW (248.1 °)

Weather ElementTotal
Precipitation---
Heating Degree Days10.5 (Base 65)
Growing Degree Days4.5 (Base 50)
Averaged from 31 records on May 4, 2013
WEATHER CONDITIONS BREAKOUT
WIND DIRECTION BREAKOUT
WEATHER BY HOUR - MAY 4, 2013
[ °C ]   °F
Local TimeTemperatureDewpointHumidityBarometerVisibilityWind DirectionWind SpeedGust SpeedPrecipitationEventsConditions
12:50 AM51.8 °F41.0 °F67 %29.86 in6.2 miSW (230°)19.6 mphMostly Cloudy
1:50 AM51.8 °F42.8 °F71 %29.83 in6.2 miSW (220°)12.7 mphPartly Cloudy
2:50 AM51.8 °F42.8 °F71 %29.83 in6.2 miSSW (210°)11.5 mphMostly Cloudy
3:50 AM52.0 °F42.0 °F60 %29.84 in17.0 miSW (230°)12.7 mphScattered Clouds
3:50 AM51.8 °F42.8 °F71 %29.83 in6.2 miSW (230°)12.7 mphMostly Cloudy
4:50 AM51.8 °F41.0 °F67 %29.80 in6.2 miWSW (240°)16.1 mphMostly Cloudy
5:50 AM51.8 °F42.8 °F71 %29.80 in6.2 miSW (220°)11.5 mphMostly Cloudy
6:50 AM51.8 °F42.8 °F71 %29.83 in6.2 miSW (230°)19.6 mphScattered Clouds
6:50 AM52.0 °F43.0 °F63 %29.83 in22.0 miSW (230°)19.6 mph
7:50 AM51.8 °F42.8 °F71 %29.83 in6.2 miWSW (250°)16.1 mphMostly Cloudy
8:50 AM51.8 °F41.0 °F67 %29.86 in6.2 miWSW (250°)13.8 mphMostly Cloudy
9:50 AM52.0 °F39.0 °F50 %29.86 in37.0 miWSW (250°)16.1 mphMostly Cloudy
9:50 AM51.8 °F39.2 °F62 %29.86 in6.2 miWSW (250°)16.1 mphScattered Clouds
10:50 AM53.6 °F39.2 °F58 %29.86 in6.2 miWSW (250°)16.1 mphMostly Cloudy
11:50 AM55.4 °F39.2 °F54 %29.89 in6.2 miWest (270°)16.1 mphMostly Cloudy
12:50 PM55.4 °F37.4 °F51 %29.89 in6.2 miWest (270°)17.3 mphMostly Cloudy
12:50 PM56.0 °F38.0 °F39 %29.89 in31.0 miWest (270°)17.3 mphMostly Cloudy
1:50 PM57.2 °F37.4 °F48 %29.89 in6.2 miWest (260°)19.6 mphMostly Cloudy
2:50 PM55.4 °F37.4 °F51 %29.92 in6.2 miWest (270°)17.3 mphOvercast
3:50 PM55.0 °F38.0 °F40 %29.94 in31.0 miWest (270°)19.6 mphMostly Cloudy
3:50 PM55.4 °F37.4 °F51 %29.92 in6.2 miWest (270°)19.6 mphMostly Cloudy
4:50 PM57.2 °F28.4 °F33 %29.95 in6.2 miWest (260°)21.9 mphMostly Cloudy
5:50 PM55.4 °F32.0 °F41 %29.95 in6.2 miWest (270°)17.3 mphScattered Clouds
6:50 PM53.6 °F33.8 °F47 %29.98 in6.2 miWNW (290°)17.3 mph
6:50 PM54.0 °F33.0 °F33 %29.99 in31.0 miWNW (290°)17.3 mph
7:50 PM53.6 °F35.6 °F51 %29.98 in6.2 miWest (280°)13.8 mphMostly Cloudy
8:50 PM51.8 °F35.6 °F54 %30.01 in6.2 miWSW (250°)10.4 mphScattered Clouds
9:50 PM52.0 °F37.0 °F45 %30.03 in22.0 miSW (230°)11.5 mphMostly Cloudy
9:50 PM51.8 °F37.4 °F58 %30.01 in6.2 miSW (230°)11.5 mphMostly Cloudy
10:50 PM51.8 °F37.4 °F58 %30.04 in6.2 miSSW (200°)10.4 mphMostly Cloudy
11:50 PM51.8 °F37.4 °F58 %30.04 in6.2 miSW (220°)12.7 mphOvercast
Hourly data recorded from EGXG, located miles away from York, England







STORIES FROM OUR PARTNERS